Regional Weather Roundup
Issued by NWS

Home | Current Version | Previous Version | Graphics & Text | Print | Product List | Glossary On
Versions: 1 2 3 4 5 6 7 8 9 10 11 12 13 14 15 16 17 18 19 20 21 22 23 24 25 26 27 28 29 30 31 32 33 34 35 36 37 38 39 40 41 42 43 44 45 46 47 48 49 50
000
ASUS43 KMKX 291100
RWRWI

WISCONSIN REGIONAL WEATHER ROUNDUP
NATIONAL WEATHER SERVICE MILWAUKEE/SULLIVAN WI
500 AM CST THU JAN 29 2015

NOTE: "FAIR" INDICATES FEW OR NO CLOUDS BELOW 12,000 FEET WITH NO
SIGNIFICANT WEATHER AND/OR OBSTRUCTIONS TO VISIBILITY.

WIZ001-002-006>008-014>016-023>028-291200-
NORTHWEST WISCONSIN

CITY           SKY/WX    TMP DP  RH WIND       PRES   REMARKS
SUPERIOR ARPT  CLOUDY    32  26  78 N18G24    29.94R WCI  20
ASHLAND        CLOUDY    31  26  82 NW13      29.88R WCI  21
HAYWARD        CLOUDY    30  26  85 N10G17    29.87R WCI  21
SIREN          CLOUDY    32  29  90 N15       29.92R WCI  22
CUMBERLAND     CLOUDY    30  28  93 NW20G28   29.88R FOG     WCI  18
RICE LAKE      CLOUDY    31  29  93 NW10      29.89R FOG     WCI  22
CHETEK         CLOUDY    30  29  96 NW7       29.87R FOG     WCI  23
LADYSMITH      CLOUDY    29  28  97 NW9       29.85R FOG     WCI  20
EAU CLAIRE     CLOUDY    31  27  85 NW10      29.88R WCI  22
MENOMONIE      CLOUDY    32  30  92 W13       29.89R FOG     WCI  22
NEW RICHMOND   CLOUDY    32  32  99 NW13G21   29.92R WCI  22
OSCEOLA        CLOUDY    33  32  97 NW12      29.95R WCI  24
$$

WIZ003>005-009-010-017-018-291200-
NORTH CENTRAL WISCONSIN

CITY           SKY/WX    TMP DP  RH WIND       PRES   REMARKS
MANITOWISH WTR CLOUDY    26  26 100 NW8       29.77R FOG     WCI  18
ARBOR VITAE    CLOUDY    27  25  94 NW6       29.76S FOG     WCI  20
WOODRUFF       CLOUDY    27  25  94 NW6       29.76S FOG     WCI  20
RHINELANDER    CLOUDY    25  23  92 NW5       29.76S FOG     WCI  19
EAGLE RIVER    CLOUDY    25  23  94 CALM      29.74S FOG
LAND O LAKES   CLOUDY    26  26  99 NW5       29.75S FOG     WCI  20
PHILLIPS       CLOUDY    26  25  97 NW5       29.79R FOG     WCI  20
TOMAHAWK       CLOUDY    26  24  95 CALM      29.78S FOG
MEDFORD        CLOUDY    26  25  96 NW10      29.79R FOG     WCI  15
MERRILL        CLOUDY    26  26 100 NW6       29.78S FOG     WCI  20
$$

WIZ029-030-035-036-043>047-291200-
CENTRAL WISCONSIN

CITY           SKY/WX    TMP DP  RH WIND       PRES   REMARKS
WAUSAU         CLOUDY    26  25  96 NW8       29.77R FOG     WCI  18
MOSINEE        CLOUDY    27  27 100 NW8       29.78S FOG     WCI  18
MARSHFIELD     CLOUDY    28  25  88 NW16      29.81R FOG     WCI  16
STEVENS POINT  CLOUDY    25  24  97 NW5       29.78S FOG     WCI  19
WAUPACA        CLOUDY    31  26  84 NW8       29.78S FOG     WCI  23
WAUTOMA        CLOUDY    28  28 100 NW8       29.78S FOG     WCI  20
WISC RAPIDS    CLOUDY    27  24  89 NW10      29.81R FOG     WCI  17
CAMP DOUGLAS   CLOUDY    28  28 100 NW10      29.81R FOG     WCI  19
$$

WIZ011>013-019>022-031-037>040-048>050-291200-
NORTHEAST WISCONSIN

CITY           SKY/WX    TMP DP  RH WIND       PRES   REMARKS
ANTIGO         CLOUDY    24  24  99 NW6       29.75S FOG     WCI  17
SHAWANO        LGT SNOW  31  26  81 NW6       29.77F WCI  25
OCONTO         CLOUDY    30  26  83 MISG      29.77S
STURGEON BAY   CLOUDY    30  25  80 W5        29.77F WCI  25
GREEN BAY      CLOUDY    30  25  81 NW8       29.76F HAZE    WCI  22
MANITOWOC      NOT AVBL
APPLETON       NOT AVBL
CLINTONVILLE   CLOUDY    30  25  80 NW8       29.77F WCI  23
OSHKOSH        CLOUDY    30  24  78 N7        29.75S HAZE    WCI  23
$$

WIZ032>034-041-042-053>061-291200-
SOUTHWEST WISCONSIN

CITY           SKY/WX    TMP DP  RH WIND       PRES   REMARKS
LA CROSSE      CLOUDY    33  27  78 NW14      29.88R WCI  23
SPARTA         CLOUDY    30  28  95 NW12      29.85R FOG     WCI  20
VIROQUA        CLOUDY    30  30 100 NW14      29.81R WCI  19
BOSCOBEL       CLOUDY    34  28  79 NW13G20   29.84R WCI  25
PRAIRIE DU CHI CLOUDY    32  29  89 NW12G17   29.84R WCI  23
PLATTEVILLE    CLOUDY    32  31  96 NW15      29.78R WCI  22
$$

WIZ056-057-062-063-064-067-068-291200-
SOUTH CENTRAL WISCONSIN

CITY           SKY/WX    TMP DP  RH WIND       PRES   REMARKS
REEDSBURG      CLOUDY    29  28  96 NW9G16    29.78R FOG     WCI  21
BARABOO/DELLS  CLOUDY    29  28  95 NW7       29.77R FOG     WCI  22
LONE ROCK      NOT AVBL
MINERAL POINT  CLOUDY    32  32 100 NW14      29.76R FOG     WCI  22
MADISON        CLOUDY    31  26  82 N6        29.76R WCI  25
MIDDLETON      CLOUDY    32  29  87 NW6       29.75R WCI  26
WATERTOWN      CLOUDY    31  26  83 N3        29.73S
MONROE         CLOUDY    32  30  93 N8        29.73R WCI  25
JANESVILLE     CLOUDY    34  28  80 N6        29.72S WCI  29
$$

WIZ051-052-058>065-066-070>072-291200-
SOUTHEAST WISCONSIN

CITY           SKY/WX    TMP DP  RH WIND       PRES   REMARKS
MILWAUKEE      CLOUDY    33  26  75 CALM      29.72F
WAUKESHA       CLOUDY    30  25  80 CALM      29.73S
MILWAUKEE/TIMM CLOUDY    32  27  80 CALM      29.73F
RACINE         CLOUDY    33  27  78 CALM      29.73F
BURLINGTON     CLOUDY    31  25  78 N5        29.71F WCI  26
KENOSHA        CLOUDY    32  27  81 N3        29.70F
FOND DU LAC    CLOUDY    30  25  81 N5        29.75R HAZE    WCI  25
SHEBOYGAN      CLOUDY    31  26  82 NW5       29.74F WCI  26
WEST BEND      CLOUDY    30  27  86 CALM      29.72F
JUNEAU         CLOUDY    30  26  86 NW5       29.75S WCI  25
$$

LSZ147-162-291200-
LAKE SUPERIOR

STATION/POSITION TIME  TEMP    WIND        PRES    WAVE
                       AIR SEA DIR/SP/G            HT/PER
                 (UTC) (F)     (DEG/KT/KT) (MB)    (FT/S)
DEVILS ISLAND    1000   32     330/ 20/ 24 1011.7R
PORT WING        1005   33     320/ 20/ 25 1012.2R
SAXON HARBOR     1000   31     300/  8/ 14 1010.8R
$$

LMZ867-665-643>646-291200-
LAKE MICHIGAN

STATION/POSITION TIME  TEMP    WIND        PRES    WAVE
                       AIR SEA DIR/SP/G            HT/PER
                 (UTC) (F)     (DEG/KT/KT) (MB)    (FT/S)
NORTHPORT PIER   1020   31     300/  2/  6 1008.1F
SISTER BAY       1043   30     310/  8/  9   N/A
KEWAUNEE LAKESHO 1000   30      CALM  /  2 1007.4F
SHEBOYGAN LAKESH 1000   35     210/  6/  7 1008.3F
PORT WASHINGTON  1040   34        CALM     1007.8F
MILWAUKEE LAKESH 1000   33     140/  3/  4   N/A
KENOSHA   LAKESH 1000   33     170/  4/  5 1006.8F
$$

TC  - TEMPERATURE IN CELSIUS
VSB - VISIBILITY IN STATUTE MILES
WCI - WIND CHILL INDEX
HX  - HEAT INDEX




USA.gov is the U.S. government's official web portal to all federal, state and local government web resources and services.